Flag for Canada Weather past 2 weeks in Strathcona County, Alberta, Canada

Now
29 °F

Chilly.


Feels Like: 25 °F
Forecast: 25 / 47 °F
Wind: 3 mph from South

Location: Edmonton Municipal

Current Time: Apr 26, 2015 at 3:04:13 AM

Latest Report: Apr 26, 2015 at 2:00 AM


Visibility: N/A

Pressure: 30.18 "Hg

Humidity: 79%

Dew point: 23 °F

Location of Strathcona CountyLocation

Historic Weather in Strathcona County — Graph

°F

Strathcona County temperature yesterday

Maximum temperature yesterday: 44 °F (at 6:00 PM)
Minimum temperature yesterday: 32 °F (at 11:00 PM)
Average temperature yesterday: 37 °F

Past Weeks' High & Low Weather Summary

 TemperatureHumidityPressure
High72 °F (Apr 22, 3:00 PM)100% (Apr 24, 6:00 AM)30.34 "Hg (Apr 24, 6:00 AM)
Low29 °F (Apr 19, 7:00 AM)14% (Apr 12, 2:00 PM)29.29 "Hg (Apr 11, 12:00 PM)
Average45 °F44%29.91 "Hg
* Reported Apr 11 2:00 AM — Apr 26 2:00 AM, Strathcona County, Weather by CustomWeather, © 2015

Note: Actual official high and low records may vary slightly from our data, if they occured in-between our weather recording intervals... More about our weather records

Advertising

Strathcona County weather history for previous 24 hours

 ConditionsComfort  
Time TempWeatherWind HumidityBarometerVisibility
2:00 AM
Sun, Apr 26
29 °FChilly.3 mph79%30.18 "HgN/A
1:00 AM30 °FChilly.5 mph77%30.18 "HgN/A
12:00 AM31 °FChilly.6 mph75%30.17 "HgN/A
11:00 PM
Sat, Apr 25
32 °FChilly.7 mph78%30.17 "HgN/A
10:00 PM34 °FChilly.8 mph68%30.16 "HgN/A
9:00 PM37 °FChilly.8 mph62%30.14 "HgN/A
8:00 PM42 °FQuite cool.8 mph29%30.12 "HgN/A
7:00 PM44 °FQuite cool.8 mph25%30.11 "HgN/A
6:00 PM44 °FQuite cool.8 mph29%30.09 "HgN/A
5:00 PM43 °FQuite cool.9 mph30%30.09 "HgN/A
4:00 PM44 °FQuite cool.9 mph32%30.09 "HgN/A
3:00 PM43 °FQuite cool.9 mph34%30.09 "HgN/A
2:00 PM40 °FQuite cool.12 mph35%30.08 "HgN/A
1:00 PM39 °FChilly.9 mph37%30.07 "HgN/A
12:00 PM36 °FChilly.12 mph45%30.06 "HgN/A
11:00 AM38 °FChilly.13 mph47%30.06 "HgN/A
10:00 AM33 °FChilly.12 mph62%30.05 "HgN/A
9:00 AM33 °FChilly.10 mph62%30.03 "HgN/A
8:00 AM33 °FChilly.12 mph63%30.02 "HgN/A
7:00 AM33 °FChilly.12 mph66%30.00 "HgN/A
6:00 AM34 °FChilly.7 mph72%29.98 "HgN/A
5:00 AM34 °FChilly.12 mph68%29.97 "HgN/A
4:00 AM35 °FChilly.9 mph65%29.94 "HgN/A
3:00 AM36 °FChilly.10 mph63%29.93 "HgN/A
Weather by CustomWeather, © 2015

See weather overviewHow to use our weather pages